Showing default

MINXSS-2, 43758

Orbit data source: Space-Track

MINXSS-2, 43758 is a payload satellite owned by CU-LASP (US) in SSO that was launched on Mon, 03 Dec 2018 UTC via an FALCON 9 launch vehicle from the Air Force Western Test Range (AFWTR). Payload-class satellites include a variety of spacecraft equipped with specific instruments for various scientific and technological missions. These include communications satellites like Starlink; space stations such as the ISS; scientific satellites like the Hubble; Earth observation satellites from companies like Planet Labs, Umbra, and HawkEye 360; GPS; miniature CubeSats for education and research; and military/defense satellites.

Loading next visibility...
Identifier
43758, 2018-099A
Orbit
SSO
Country
Flag of USUS
Related business
Manufacturer
CU-LASP
Mission
Operational Amateur Astronomy
Bus & Motor
CUBESAT 3U, Unknown motor
Mass
3.52 kg wet, 3.52 kg dry
Launch date (UTC)
2018-12-03 (7 years ago)
Launch vehicle
FALCON 9
Launch site
Air Force Western Test Range (AFWTR)
Object type
Payload
Rocket body
Debris
Shape & HBR
Box + 2 Pan + 1 Ant, 0.4 m
Radar Cross Section
0.075 m², Medium (>0.1 m² and < 1m²)

Expand to show TLE details & history
Last TLE update: 23 hours ago

TLE from 23 hours ago
0 MINXSS-2
1 43758U 18099A   25305.43931712  .00025992  00000-0  84854-3 0  9998
2 43758  97.4859  12.3212 0010150  11.4552 348.6918 15.31698825379092
Epoch: 2025-11-01T10:32Z
TLE epoch observation values (Epoch: 2025-11-01T10:32:36.999Z)
Latitude
-0.00003°
Longitude
173.19766°
Altitude
467.029 km
Speed
7.637 km/s
True Right ascension
00h 49m 17s
True Declination
0° 00' 00"
Sunlit
Object was in full shadow at epoch
Visualization orbit readout
Latitude
Unknown
Longitude
Unknown
Altitude
Unknown
Speed
Unknown
Apparent Right ascension
Unknown
Apparent Declination
Unknown
Sunlit
N/A
Visualization observer readout
Local Sidereal Time
05:26:21
Azimuth
Unknown
Elevation
Unknown
Doppler factor
Unknown
Orbital elements
Apogee altitude
474.646 km
Perigee altitude
460.749 km
Semi-major axis
6,845.834 km
Eccentricity
0.00102
Inclination
97.4859°
RAAN
12.3212°
Arg. of periapsis
11.4552°
True anomaly
348.66896°
Mean anomaly
348.6918°
Eccentric anomaly
348.68039°
Mean motion
3.83181 °/min
Orbital period
93.95 mins
BSTAR
0.00084854
Loading maneuver chart data...
Computing Atmospheric mass density...
Loading historical data...
Loading historical data...
Loading historical data...
Loading historical data...
Loading historical data...
Loading historical data...
Loading historical data...

Documentation

Showing up to 5 results
|